Regional Weather Roundup
Issued by NWS

Home | Current Version | Previous Version | Text Only | Print | Product List | Glossary Off
Versions: 1 2 3 4 5 6 7 8 9 10 11 12 13 14 15 16 17 18 19 20 21 22 23 24 25 26 27 28 29 30 31 32 33 34 35 36 37 38 39 40 41 42 43 44 45 46 47 48 49 50

000
ASUS43 KFSD 282110
RWRSD

WEATHER ROUNDUP FOR SOUTH DAKOTA
NATIONAL WEATHER SERVICE SIOUX FALLS SD
300 PM CST SUN DEC 28 2014

NOTE: "FAIR" INDICATES FEW OR NO CLOUDS BELOW 12,000 FEET WITH NO
SIGNIFICANT WEATHER AND/OR OBSTRUCTIONS TO VISIBILITY.


SDZ001>005-009-010-012>017-282200-
NORTHWEST AND NORTH CENTRAL SOUTH DAKOTA

CITY           SKY/WX    TMP DP  RH WIND       PRES   REMARKS
BUFFALO          N/A     23  16  74 NE16      29.90R WCI  10
FAITH            N/A     22  15  75 E12       30.01R WCI  10
MOBRIDGE       CLOUDY    16  11  80 E14       30.11R WCI   2
$$

SDZ012>016-024>037-041>051-057-063-072>074-282200-
SOUTHWEST AND SOUTH CENTRAL SOUTH DAKOTA

CITY           SKY/WX    TMP DP  RH WIND       PRES   REMARKS
RAPID CTY ARPT FLURRIES  25  17  72 NE8       29.94R WCI  16
PIERRE         CLOUDY    18  15  88 E14       30.09R WCI   4
CUSTER         LGT SNOW  19  12  74 NE9       29.81R WCI   8
ELLSWORTH AFB  CLOUDY    25  15  65 SE3       29.94
PHILIP         CLOUDY    21  13  71 E12       30.03R WCI   9
PINE RIDGE     LGT SNOW  28  20  71 NE3       29.92R
SPEARFISH      FAIR      27  18  69 E8        29.90R WCI  18
WINNER         CLOUDY    19  11  70 E10       30.06R WCI   7
$$

SDZ004>011-016>023-039-040-282200-
NORTHEAST SOUTH DAKOTA

CITY           SKY/WX    TMP DP  RH WIND       PRES   REMARKS
ABERDEEN       CLOUDY    11   4  73 NE13      30.22R WCI  -4
WATERTOWN      SUNNY     15   9  76 NE8       30.15R WCI   4
SISSETON         N/A      8   2  76 N12       30.24R WCI  -7
$$

SDZ017-020-022-023-036>040-048>070-282200-
SOUTHEAST SOUTH DAKOTA

CITY           SKY/WX    TMP DP  RH WIND       PRES   REMARKS
SIOUX FALLS    CLOUDY    20  17  88 NE14      30.14R WCI   7
HURON          CLOUDY    20  16  84 NE10      30.17R WCI   9
CHAMBERLAIN    CLOUDY    18  14  85 NE8       30.10R WCI   8
MITCHELL       MOSUNNY   21  15  78 NE8       30.15R WCI  11
YANKTON        CLOUDY    18  12  79 NE5       30.15R WCI  11
$$

ABBREVIATIONS USED IN REMARKS
   TC - TEMPERATURE IN CELSIUS
  WCI - WIND CHILL INDEX
   HX - HEAT INDEX
  VSB - VISIBILITY




USA.gov is the U.S. government's official web portal to all federal, state and local government web resources and services.